USTRANSCOM 7589


LPLA
Lajes Air Base
Terceira, PT
KWRI
Joint Base McGuire Dix Lakehurst
Wrightstown, US

Activity Log

Date Flight Route Aircraft Duration
05/22/2019 CMB809 LM H124 FRS H141 KOLIT 41N040W 41N050W 41N060W JOBOC LINND ZIGGY B752 5h 29m

Route Details

Aircraft Information
Primary: Boeing 757-200SF
Backup: Not Available
Route Data
Distance: 2185nm
Sched. Duration: 4h 29m
Avg. Duration: 5h 29m (+100m)
Times Flown: 1
Recm'd Route: Not Available
Planned Altitude: 36,000ft
Origin Wx: LPLA 030300Z /////KT 7000 -RA FEW014 SCT021 BKN028 16/15 Q1013
Dest. Wx: KWRI 030256Z AUTO 00000KT 10SM FEW070 16/11 A2986 RMK AO2 RAB00E01RAB41E51 SLP111 P0000 60000 T01630106 58004 $
Notes: USTRANSCOM CONTRACT FLIGHT

Financial History
Total Freight: 29,942lbs
Average Load: 29,942lbs/flt
Fuel Used: 43,200lbs
Avg. Fuel Used: 43,200lbs/flt
Fuel Expense: $34,560
Avg. Fuel Expense: $34,560
Avg. Fuel Cost: $0.80/lbs
Total Gross Income: $56,590
Pilot Pay: $229
Total Expenses: $6,164
Total Revenue: $14,552
Average Revenue: $56,590.38